Weather observations for the past three days for
Dallas, Redbird Airport
Imperial (Metric)
Date Time (cdt) Wind (mph) Vis. (mi.) Weather Sky Cond. Temperature (ºF) Relative Humidity Wind Chill (°F) Heat Index (°F) Pressure Precipitation (in)
Air Dwpt 6 hour altimeter (in) sea level (mb) 1 hr 3 hr 6 hr
Max. Min.
20 02:53 E 9 10.00 Fair CLR 78.1 72 82% 80 30.09 1017.9
20 01:53 E 9 10.00 Fair CLR 79 72 79% 82 30.1 1018.3
20 00:53 E 9 10.00 Fair CLR 80.1 71.1 82 80.1 74% 84 30.11 1018.6
19 23:53 E 8 10.00 Partly Cloudy SCT110 80.1 71.1 74% 84 30.11 1018.9
19 22:53 E 8 10.00 A Few Clouds FEW110 81 70 69% 84 30.11 1018.6
19 21:53 E 8 10.00 Partly Cloudy SCT120 81 70 69% 84 30.09 1018.0
19 20:53 NE 7 10.00 Fair CLR 81 68 65% 84 30.07 1017.4
19 19:53 E 8 10.00 Fair CLR 82 68 63% 85 30.06 1017.2
19 18:53 E 8 10.00 Fair CLR 82 66.9 86 82 60% 85 30.06 1017.0
19 17:53 E 8 10.00 Light Rain FEW035 82.9 68 61% 86 30.06 1016.9
19 16:53 E 10 10.00 Fair CLR 84 69.1 61% 88 30.06 1017.0
19 15:53 E 13 10.00 Mostly Cloudy BKN110 84 69.1 61% 88 30.06 1017.0
19 14:53 E 14 10.00 Mostly Cloudy BKN110 84.9 69.1 59% 89 30.06 1017.0
19 13:53 E 13 10.00 Mostly Cloudy SCT037 BKN110 86 69.1 57% 90 30.07 1017.3
19 12:53 E 10 10.00 Mostly Cloudy SCT034 BKN085 84.9 69.1 84.9 73 59% 89 30.08 1017.8
19 11:53 E 12 10.00 Overcast FEW028 OVC080 82 71.1 69% 86 30.08 1017.8
19 10:53 E 12 10.00 Overcast BKN024 BKN032 OVC095 81 70 69% 84 30.07 1017.4
19 09:53 NE 10 10.00 Overcast SCT018 BKN070 OVC085 80.1 71.1 74% 84 30.07 1017.3
19 08:53 E 10 10.00 Overcast BKN013 OVC029 77 71.1 82% 79 30.06 1017.1
19 07:53 E 12 G 18 10.00 Overcast OVC008 73.9 71.1 91% 30.03 1016.1
19 06:53 E 7 10.00 A Few Clouds FEW008 73 70 77 73 90% 30 1015.1
19 05:53 E 8 10.00 Fair CLR 73 69.1 87% 29.97 1014.0
19 04:53 E 6 10.00 A Few Clouds FEW028 73.9 69.1 85% 29.97 1013.8
19 03:53 E 5 10.00 Fair CLR 73.9 69.1 85% 29.95 1013.3
19 02:53 SE 8 10.00 Fair CLR 75 70 84% 75 29.95 1013.2
19 01:53 SE 6 10.00 Mostly Cloudy SCT017 BKN026 75.9 70 82% 77 29.95 1013.2
19 00:53 SE 8 10.00 Fair CLR 77 70 89.1 77 79% 79 29.94 1013.0
18 23:53 S 15 10.00 Mostly Cloudy BKN024 BKN038 79 70 74% 82 29.94 1012.8
18 22:53 SE 15 10.00 A Few Clouds FEW034 81 71.1 72% 85 29.91 1012.0
18 21:53 SE 20 G 29 10.00 A Few Clouds FEW047 82.9 69.1 63% 87 29.89 1011.2
18 20:53 SE 13 10.00 Fair CLR 84 71.1 65% 89 29.86 1010.2
18 19:53 SE 13 G 24 10.00 Fair CLR 87.1 70 57% 92 29.84 1009.7
18 18:53 SE 16 10.00 Fair CLR 88 70 91 87.1 55% 93 29.84 1009.4
18 17:53 SE 16 G 25 10.00 A Few Clouds FEW048 90 71.1 54% 96 29.83 1009.3
18 16:53 SE 14 G 23 10.00 Mostly Cloudy FEW050 BKN060 BKN080 90 69.1 50% 95 29.84 1009.6
18 15:53 SE 16 G 28 10.00 Mostly Cloudy SCT047 BKN080 90 71.1 54% 96 29.85 1009.9
18 14:53 S 15 G 29 10.00 Mostly Cloudy SCT047 BKN080 90 72 56% 97 29.86 1010.3
18 13:53 SE 17 G 24 10.00 Mostly Cloudy FEW042 SCT050 BKN070 88 71.1 57% 94 29.87 1010.6
18 12:53 SE 22 G 26 10.00 Mostly Cloudy and Breezy SCT039 SCT055 BKN070 88 71.1 88 73.9 57% 94 29.88 1010.8
18 11:53 S 15 G 24 10.00 Partly Cloudy SCT037 SCT047 84.9 72 65% 91 29.88 1010.9
18 10:53 S 13 10.00 Mostly Cloudy BKN023 BKN033 BKN050 84 72 67% 90 29.89 1011.2
18 09:53 S 12 10.00 Overcast BKN019 OVC055 81 73 77% 86 29.9 1011.7
18 08:53 SE 8 10.00 Overcast BKN015 BKN020 OVC055 77 72 85% 78 29.9 1011.6
18 07:53 SE 14 10.00 Overcast OVC010 75 72 90% 74 29.87 1010.7
18 06:53 SE 9 10.00 Overcast FEW011 BKN031 OVC039 73.9 71.1 79 73.9 91% 29.86 1010.1
18 05:53 SE 12 10.00 A Few Clouds FEW029 73.9 71.1 91% 29.85 1009.7
18 04:53 SE 12 10.00 Fair CLR 75 70 84% 75 29.84 1009.5
18 03:53 S 13 G 22 10.00 Fair CLR 75.9 69.1 79% 77 29.84 1009.4
18 02:53 S 15 G 23 10.00 Fair CLR 77 69.1 77% 79 29.82 1008.7
18 01:53 S 13 G 24 10.00 Fair CLR 78.1 71.1 79% 80 29.83 1009.2
18 00:53 S 16 G 25 10.00 A Few Clouds FEW023 79 72 91 79 79% 82 29.85 1009.7
17 23:53 S 16 G 28 10.00 Fair CLR 81 72 74% 85 29.85 1009.7
17 22:53 SE 13 G 25 10.00 Mostly Cloudy SCT035 BKN043 BKN060 82.9 73 72% 89 29.84 1009.4
17 21:53 SE 16 G 29 10.00 A Few Clouds FEW070 82.9 72 70% 88 29.81 1008.6
17 20:53 S 15 G 26 10.00 Mostly Cloudy BKN060 84.9 71.1 63% 90 29.79 1007.9
17 19:53 SE 18 G 31 10.00 Partly Cloudy FEW045 SCT065 88 72 59% 95 29.77 1007.0
17 18:53 SE 16 G 24 10.00 Partly Cloudy FEW050 SCT065 90 72 93 89.1 56% 97 29.75 1006.6
17 17:53 SE 18 G 25 10.00 A Few Clouds FEW050 91.9 72 52% 100 29.75 1006.6
17 16:53 S 20 G 29 10.00 Partly Cloudy FEW047 SCT060 91 72 54% 99 29.76 1006.9
17 15:53 S 14 G 28 10.00 A Few Clouds FEW048 91.9 73 54% 101 29.78 1007.3
17 14:53 SE 14 10.00 Partly Cloudy SCT049 93 72 50% 101 29.8 1007.9
17 13:53 SE 16 G 31 10.00 A Few Clouds FEW047 FEW060 91.9 72 52% 100 29.82 1008.8
17 12:53 SE 17 G 28 10.00 Partly Cloudy SCT045 90 72 90 75.9 56% 97 29.84 1009.5
17 11:53 S 20 G 29 10.00 Partly Cloudy FEW036 FEW047 SCT060 89.1 73 59% 97 29.85 1009.9
17 10:53 S 17 G 24 10.00 Mostly Cloudy SCT029 BKN039 86 73.9 67% 94 29.86 1010.1
17 09:53 S 21 G 31 10.00 Mostly Cloudy and Breezy BKN018 BKN026 BKN035 82.9 75 77% 90 29.85 1010.0
17 08:53 S 13 10.00 Mostly Cloudy BKN015 80.1 75 85% 85 29.86 1010.1
17 07:53 S 13 10.00 Mostly Cloudy SCT010 BKN020 BKN029 77 73.9 90% 78 29.85 1009.9
17 06:53 S 12 10.00 Overcast BKN013 OVC020 75.9 73 80.1 75 91% 76 29.84 1009.6
17 05:53 S 10 10.00 Partly Cloudy SCT013 75.9 72 88% 76 29.83 1009.2
17 04:53 S 13 10.00 Fair CLR 75.9 72 88% 76 29.83 1009.0
17 03:53 S 12 10.00 Fair CLR 77 71.1 82% 79 29.82 1008.9
Date Time (cdt) Wind (mph) Vis. (mi.) Weather Sky Cond. Air Dwpt Max. Min. Relative Humidity Wind Chill (°F) Heat Index (°F) altimeter (in) sea level (mb) 1 hr 3 hr 6 hr
6 hour
Temperature (ºF) Pressure Precipitation (in)